[[{"header":{"parameterUnit":"m.s-1","parameterCategory":1,"la1":30.2992,"la2":30.254,"lo1":-89.0895,"lo2":-89.0443,"dy":0.0025,"dx":0.0025,"nx":19,"ny":19,"refTime":"2026-03-31T21:00:00:Z","depth":0,"parameterNumber":2,"parameterNumberName":"U-component_of_WINDS"},"data":[0,0,0,-2.7387,-2.7389,-2.7472,-2.7472,-2.7579,-2.758,0,0,0,0,0,0,0,0,0,0,0,-2.7363,-2.7363,-2.7387,-2.7389,-2.7472,-2.7472,-2.7579,-2.758,0,0,0,0,0,0,0,0,0,0,0,-2.7362,-2.7363,-2.7364,-2.739,-2.7472,-2.7473,-2.7579,-2.7516,0,0,0,0,0,0,0,0,0,0,-2.7436,-2.7412,-2.7363,-2.7364,-2.739,-2.7472,-2.7473,-2.7513,-2.752,-2.7542,0,-2.756,0,-2.7572,-2.7587,-2.7588,0,0,0,-2.739,-2.7406,-2.7429,-2.7364,-2.7391,-2.7472,-2.7435,-2.7517,-2.7525,-2.7551,-2.7562,-2.7566,-2.7574,-2.7588,-2.7588,-2.771,-2.7711,0,0,-2.7385,-2.7377,-2.7423,-2.7434,-2.742,-2.7432,-2.7437,-2.7522,-2.7533,-2.7562,-2.7568,-2.7575,-2.7589,-2.7589,-2.771,-2.771,0,0,0,-2.7372,-2.7374,-2.7395,-2.743,-2.7444,-2.7435,-2.7441,-2.7529,-2.7537,-2.7569,-2.7577,-2.7589,-2.759,-2.7709,-2.771,-2.7728,0,0,0,-2.7369,-2.7366,-2.7393,-2.7389,-2.7443,-2.7488,-2.7446,-2.7531,-2.7541,-2.7576,-2.7589,-2.7591,-2.7709,-2.771,-2.7727,-2.7738,0,0,0,-2.7357,-2.7365,-2.7377,-2.7388,-2.7423,-2.7487,-2.7499,-2.7533,-2.7545,-2.7588,-2.7592,-2.7708,-2.7709,-2.7725,-2.7735,-2.7767,0,0,0,-2.7342,-2.7392,-2.7377,-2.7436,-2.7423,-2.7498,-2.7498,-2.7555,-2.7593,-2.759,-2.7709,-2.771,-2.7724,-2.7734,-2.7765,-2.7791,-2.7801,0,0,-2.7401,-2.7399,-2.7434,-2.7423,-2.7498,-2.7486,-2.7564,-2.7608,-2.762,-2.768,-2.7683,-2.7727,-2.7735,-2.7766,-2.7865,-2.7873,0,0,0,-2.745,-2.7475,-2.7497,-2.7533,-2.7567,-2.7598,-2.763,-2.7646,-2.7698,-2.7648,-2.7748,-2.7753,-2.7772,-2.7785,-2.7792,-2.7808,-2.7716,-2.7716,-2.7716,-2.7519,-2.7532,-2.7591,-2.7614,-2.7649,-2.7683,-2.7713,-2.774,-2.7743,-2.7767,-2.7783,-2.7842,-2.7856,-2.7861,-2.7878,-2.78,-2.78,-2.78,-2.78,-2.7604,-2.7641,-2.7644,-2.7702,-2.7716,-2.7765,-2.78,-2.7801,-2.7849,-2.783,-2.7847,-2.7823,-2.787,-2.7885,-2.7802,-2.7801,-2.7801,-2.7801,-2.7801,-2.765,-2.7669,-2.7689,-2.7743,-2.7784,-2.7807,-2.7853,-2.7864,-2.7875,-2.7892,-2.7912,-2.7911,-2.7911,-2.7901,-2.7901,-2.7902,-2.7902,-2.7902,-2.7902,-2.7688,-2.771,-2.7746,-2.7788,-2.7813,-2.7848,-2.7884,-2.7909,-2.7941,-2.7945,-2.7945,-2.7945,-2.7873,-2.7853,-2.7905,-2.7905,-2.7904,-2.7904,-2.7904,-2.7766,-2.7751,-2.7808,-2.7833,-2.7884,-2.7924,-2.7938,-2.799,-2.8013,-2.8035,-2.8033,-2.7978,-2.7977,-2.7971,-2.7955,-2.803,-2.803,-2.803,-2.803,-2.7803,-2.7805,-2.7865,-2.7905,-2.7946,-2.7965,-2.8031,-2.806,-2.8087,-2.8103,-2.8094,-2.8075,-2.8069,-2.8071,-2.8063,-2.8048,-2.8146,-2.8146,-2.8146,-2.7852,-2.7858,-2.7909,-2.7936,-2.7977,-2.8012,-2.8074,-2.812,-2.8149,-2.8151,-2.8115,-2.811,-2.8079,-2.8068,-2.8066,-2.8054,-2.8027,0,0]},{"header":{"parameterUnit":"m.s-1","parameterCategory":1,"la1":30.2992,"la2":30.254,"lo1":-89.0895,"lo2":-89.0443,"dy":0.0025,"dx":0.0025,"nx":19,"ny":19,"refTime":"2026-03-31T21:00:00:Z","depth":0,"parameterNumber":3,"parameterNumberName":"V-component_of_WINDS"},"data":[0,0,0,1.8681,1.8683,1.8774,1.8775,1.8881,1.8882,0,0,0,0,0,0,0,0,0,0,0,1.8648,1.8648,1.8681,1.8683,1.8774,1.8775,1.8881,1.8882,0,0,0,0,0,0,0,0,0,0,0,1.8648,1.8648,1.8649,1.8683,1.8774,1.8775,1.8881,1.8816,0,0,0,0,0,0,0,0,0,0,1.8729,1.8692,1.8648,1.8649,1.8684,1.8774,1.8775,1.8813,1.882,1.8836,0,1.8848,0,1.8867,1.8889,1.8889,0,0,0,1.8688,1.8686,1.8716,1.8649,1.8685,1.8774,1.8734,1.8817,1.8825,1.8845,1.885,1.8854,1.8869,1.8889,1.889,1.8968,1.8968,0,0,1.8683,1.8661,1.8711,1.8721,1.8706,1.8731,1.8737,1.8822,1.8825,1.885,1.8857,1.887,1.889,1.8891,1.8967,1.8968,0,0,0,1.8665,1.8657,1.8686,1.8717,1.8734,1.8734,1.8741,1.8822,1.8833,1.8858,1.8872,1.889,1.8892,1.8967,1.8967,1.8954,0,0,0,1.8662,1.8647,1.8683,1.8671,1.8732,1.8779,1.8738,1.8827,1.8837,1.8871,1.8891,1.8893,1.8967,1.8967,1.8954,1.8951,0,0,0,1.8644,1.8645,1.8656,1.8669,1.8708,1.8778,1.8794,1.883,1.8845,1.8889,1.8893,1.8967,1.8967,1.8954,1.8951,1.8965,0,0,0,1.8618,1.8642,1.8655,1.8687,1.8707,1.8769,1.8794,1.8841,1.8877,1.8891,1.8967,1.8967,1.8954,1.8951,1.8965,1.8973,1.8975,0,0,1.8636,1.8643,1.8664,1.8679,1.8733,1.8757,1.8809,1.8862,1.8886,1.8939,1.8941,1.8954,1.8951,1.8965,1.899,1.8991,0,0,0,1.8662,1.8676,1.8696,1.8729,1.8771,1.8807,1.8854,1.8875,1.8921,1.8909,1.8964,1.8963,1.8972,1.8977,1.8978,1.8987,1.8969,1.8969,1.8969,1.8655,1.8685,1.8722,1.8763,1.8795,1.8845,1.8875,1.891,1.893,1.8943,1.8959,1.897,1.8975,1.8976,1.8985,1.8966,1.8966,1.8966,1.8966,1.8683,1.8709,1.8737,1.8782,1.8814,1.8853,1.8903,1.8916,1.8957,1.896,1.897,1.8971,1.8976,1.8986,1.8965,1.8965,1.8965,1.8965,1.8965,1.8682,1.8699,1.8724,1.8777,1.8814,1.8856,1.8894,1.8922,1.8949,1.8958,1.8978,1.8979,1.8983,1.8966,1.8966,1.8966,1.8966,1.8966,1.8966,1.867,1.8699,1.8727,1.8775,1.8801,1.8839,1.8891,1.8917,1.8954,1.8971,1.8972,1.8991,1.8971,1.8965,1.8967,1.8967,1.8967,1.8967,1.8967,1.8687,1.8688,1.8732,1.8759,1.8818,1.8854,1.889,1.8942,1.8968,1.8986,1.9004,1.8985,1.8994,1.8994,1.8989,1.8997,1.8997,1.8997,1.8997,1.8686,1.8694,1.8746,1.8786,1.8829,1.8866,1.8917,1.8958,1.9001,1.9019,1.9022,1.9019,1.9017,1.9027,1.9026,1.9022,1.9039,1.9039,1.9039,1.8698,1.8712,1.8748,1.879,1.8839,1.8881,1.8929,1.8975,1.9024,1.9041,1.9034,1.9032,1.9027,1.9024,1.9039,1.9037,1.9031,0,0]}]]